Hourly Weather Sumarokovo

Today, 5 July, Sunday

Time Temperature Precipitation Wind Pressure Humidity
00:00 +18°C° 0.6 mm 0 mps 741 mmHg 90%
01:00 +20°C° 0.6 mm 1 mps 741 mmHg 91%
02:00 +20°C° 0 mm 1 mps 741 mmHg 91%
03:00 +20°C° 0.5 mm 1 mps 741 mmHg 90%
04:00 +20°C° 0.5 mm 1 mps 741 mmHg 90%
05:00 +19°C° 0.5 mm 0 mps 741 mmHg 90%
06:00 +21°C° 0.1 mm 1 mps 741 mmHg 87%
07:00 +22°C° 0.1 mm 1 mps 741 mmHg 84%
08:00 +24°C° 0 mm 1 mps 741 mmHg 79%
09:00 +24°C° 0 mm 1 mps 741 mmHg 76%
10:00 +25°C° 0 mm 1 mps 741 mmHg 73%
11:00 +24°C° 0 mm 0 mps 741 mmHg 69%
12:00 +26°C° 0 mm 1 mps 741 mmHg 71%
13:00 +26°C° 0 mm 1 mps 741 mmHg 73%
14:00 +26°C° 0 mm 1 mps 740 mmHg 74%
15:00 +25°C° 1 mm 1 mps 740 mmHg 79%
16:00 +24°C° 1 mm 1 mps 740 mmHg 83%
17:00 +23°C° 1 mm 1 mps 740 mmHg 87%
18:00 +21°C° 0.2 mm 2 mps 740 mmHg 88%
19:00 +20°C° 0.2 mm 2 mps 740 mmHg 89%
20:00 +20°C° 0.2 mm 2 mps 740 mmHg 89%
21:00 +19°C° 0 mm 2 mps 740 mmHg 90%
22:00 +18°C° 0 mm 2 mps 740 mmHg 92%
23:00 +18°C° 0 mm 2 mps 740 mmHg 93%

Tomorrow, 6 July, Monday

Time Temperature Precipitation Wind Pressure Humidity
00:00 +17°C° 0 mm 2 mps 740 mmHg 93%
01:00 +17°C° 0 mm 2 mps 740 mmHg 94%
02:00 +17°C° 0 mm 2 mps 740 mmHg 94%
03:00 +17°C° 0 mm 2 mps 740 mmHg 94%
04:00 +18°C° 0 mm 2 mps 740 mmHg 94%
05:00 +18°C° 0 mm 2 mps 740 mmHg 94%
06:00 +20°C° 0 mm 2 mps 740 mmHg 89%
07:00 +21°C° 0 mm 2 mps 740 mmHg 85%
08:00 +23°C° 0 mm 2 mps 740 mmHg 80%
09:00 +24°C° 0 mm 2 mps 740 mmHg 76%
10:00 +25°C° 0 mm 2 mps 740 mmHg 72%
11:00 +27°C° 0 mm 3 mps 740 mmHg 67%
12:00 +27°C° 0 mm 3 mps 740 mmHg 67%
13:00 +27°C° 0 mm 3 mps 740 mmHg 66%
14:00 +28°C° 0 mm 3 mps 740 mmHg 65%
15:00 +28°C° 0 mm 2 mps 740 mmHg 68%
16:00 +27°C° 0 mm 2 mps 739 mmHg 71%
17:00 +27°C° 0 mm 2 mps 739 mmHg 73%
18:00 +26°C° 0 mm 2 mps 739 mmHg 78%
19:00 +24°C° 0 mm 2 mps 739 mmHg 82%
20:00 +23°C° 0 mm 2 mps 739 mmHg 86%
21:00 +21°C° 0 mm 2 mps 739 mmHg 87%
22:00 +20°C° 0 mm 2 mps 739 mmHg 87%
23:00 +20°C° 0 mm 2 mps 739 mmHg 88%

Day after tomorrow, 7 July, Tuesday

Time Temperature Precipitation Wind Pressure Humidity
00:00 +19°C° 0 mm 2 mps 739 mmHg 88%
01:00 +19°C° 0 mm 2 mps 739 mmHg 89%
02:00 +19°C° 0 mm 2 mps 739 mmHg 89%
03:00 +19°C° 0 mm 2 mps 739 mmHg 89%
04:00 +20°C° 0 mm 2 mps 739 mmHg 89%
05:00 +20°C° 0 mm 2 mps 739 mmHg 89%
06:00 +23°C° 0 mm 2 mps 739 mmHg 85%
07:00 +24°C° 0 mm 3 mps 739 mmHg 82%
08:00 +26°C° 0 mm 3 mps 739 mmHg 79%
09:00 +27°C° 0.5 mm 3 mps 739 mmHg 74%
10:00 +28°C° 0.5 mm 3 mps 738 mmHg 69%
11:00 +29°C° 0.5 mm 3 mps 738 mmHg 64%
12:00 +30°C° 0.2 mm 3 mps 738 mmHg 64%
13:00 +30°C° 0.2 mm 3 mps 738 mmHg 63%
14:00 +30°C° 0.2 mm 3 mps 738 mmHg 63%
15:00 +30°C° 0.6 mm 3 mps 737 mmHg 67%
16:00 +29°C° 0.6 mm 3 mps 737 mmHg 72%
17:00 +29°C° 0.6 mm 2 mps 737 mmHg 76%
18:00 +27°C° 0.1 mm 2 mps 737 mmHg 80%
19:00 +26°C° 0.1 mm 2 mps 737 mmHg 84%
20:00 +25°C° 0.1 mm 2 mps 737 mmHg 87%
21:00 +24°C° 0 mm 2 mps 737 mmHg 88%
22:00 +24°C° 0 mm 2 mps 737 mmHg 88%
23:00 +23°C° 0 mm 1 mps 737 mmHg 89%

8 July, Wednesday

Time Temperature Precipitation Wind Pressure Humidity
00:00 +23°C° 0 mm 1 mps 737 mmHg 88%
01:00 +23°C° 0 mm 1 mps 737 mmHg 88%
02:00 +21°C° 0 mm 2 mps 737 mmHg 87%
03:00 +22°C° 0 mm 1 mps 737 mmHg 87%
04:00 +23°C° 0 mm 1 mps 737 mmHg 87%
05:00 +23°C° 0 mm 1 mps 737 mmHg 87%
06:00 +24°C° 0 mm 2 mps 737 mmHg 83%
07:00 +25°C° 0 mm 2 mps 736 mmHg 79%
08:00 +26°C° 0 mm 2 mps 736 mmHg 76%
09:00 +28°C° 0 mm 3 mps 737 mmHg 71%
10:00 +29°C° 0 mm 3 mps 737 mmHg 67%
11:00 +30°C° 0 mm 3 mps 737 mmHg 63%
12:00 +30°C° 0.4 mm 4 mps 737 mmHg 66%
13:00 +29°C° 0.4 mm 4 mps 737 mmHg 70%
14:00 +29°C° 0.4 mm 5 mps 737 mmHg 73%
15:00 +28°C° 0.3 mm 4 mps 737 mmHg 76%
16:00 +28°C° 0.3 mm 3 mps 737 mmHg 79%
17:00 +27°C° 0.3 mm 3 mps 738 mmHg 83%
18:00 +25°C° 1 mm 3 mps 738 mmHg 86%
19:00 +24°C° 1 mm 3 mps 738 mmHg 90%
20:00 +21°C° 1 mm 3 mps 738 mmHg 94%
21:00 +20°C° 0.2 mm 3 mps 738 mmHg 95%
22:00 +20°C° 0.2 mm 3 mps 738 mmHg 96%
23:00 +19°C° 0.2 mm 2 mps 738 mmHg 97%

9 July, Thursday

Time Temperature Precipitation Wind Pressure Humidity
00:00 +19°C° 0.6 mm 3 mps 738 mmHg 97%
01:00 +18°C° 0.6 mm 3 mps 738 mmHg 97%
02:00 +18°C° 0.6 mm 4 mps 738 mmHg 97%
03:00 +18°C° 0.3 mm 3 mps 738 mmHg 97%
04:00 +18°C° 0.3 mm 3 mps 738 mmHg 97%
05:00 +18°C° 0.3 mm 3 mps 738 mmHg 97%
06:00 +17°C° 0.8 mm 3 mps 738 mmHg 97%
07:00 +17°C° 0.8 mm 4 mps 738 mmHg 97%
08:00 +17°C° 0.8 mm 4 mps 738 mmHg 97%
09:00 +17°C° 0.9 mm 4 mps 739 mmHg 96%
10:00 +17°C° 0.9 mm 4 mps 739 mmHg 96%
11:00 +17°C° 0.9 mm 4 mps 739 mmHg 95%
12:00 +17°C° 0.3 mm 4 mps 739 mmHg 95%
13:00 +15°C° 0.3 mm 4 mps 739 mmHg 95%
14:00 +15°C° 0.3 mm 5 mps 739 mmHg 94%
15:00 +15°C° 1.2 mm 5 mps 739 mmHg 95%
16:00 +14°C° 1.2 mm 5 mps 739 mmHg 95%
17:00 +14°C° 1.2 mm 5 mps 739 mmHg 96%
18:00 +14°C° 1.5 mm 5 mps 739 mmHg 96%
19:00 +14°C° 1.5 mm 5 mps 739 mmHg 95%
20:00 +13°C° 1.5 mm 4 mps 739 mmHg 95%
21:00 +13°C° 0.2 mm 4 mps 740 mmHg 95%
22:00 +13°C° 0.2 mm 4 mps 740 mmHg 95%
23:00 +13°C° 0.2 mm 3 mps 740 mmHg 95%

10 July, Friday

Time Temperature Precipitation Wind Pressure Humidity
00:00 +12°C° 0 mm 3 mps 740 mmHg 95%
01:00 +12°C° 0 mm 3 mps 741 mmHg 95%
02:00 +11°C° 0 mm 3 mps 741 mmHg 95%
03:00 +12°C° 0 mm 3 mps 742 mmHg 95%
04:00 +12°C° 0 mm 3 mps 742 mmHg 94%
05:00 +12°C° 0 mm 3 mps 742 mmHg 93%
06:00 +14°C° 0 mm 3 mps 743 mmHg 88%
07:00 +16°C° 0 mm 3 mps 743 mmHg 84%
08:00 +18°C° 0 mm 3 mps 743 mmHg 79%
09:00 +19°C° 0 mm 3 mps 744 mmHg 74%
10:00 +20°C° 0 mm 3 mps 744 mmHg 68%
11:00 +21°C° 0 mm 3 mps 745 mmHg 63%
12:00 +22°C° 0 mm 3 mps 745 mmHg 63%
13:00 +22°C° 0 mm 3 mps 745 mmHg 62%
14:00 +24°C° 0 mm 3 mps 745 mmHg 62%
15:00 +22°C° 0.1 mm 3 mps 745 mmHg 66%
16:00 +22°C° 0.1 mm 3 mps 745 mmHg 70%
17:00 +21°C° 0.1 mm 3 mps 746 mmHg 73%
18:00 +20°C° 0 mm 3 mps 746 mmHg 77%
19:00 +18°C° 0 mm 2 mps 746 mmHg 81%
20:00 +16°C° 0 mm 2 mps 746 mmHg 85%
21:00 +16°C° 0 mm 2 mps 747 mmHg 86%
22:00 +15°C° 0 mm 2 mps 747 mmHg 88%
23:00 +14°C° 0 mm 2 mps 748 mmHg 89%
Show more